Home   Weather   Montréal   Past weeks
Flag for Canada

Past Weather in Montréal, Quebec, Canada — Yesterday and Last 2 Weeks

Now
55 °F

Low clouds.


Feels Like: 55 °F
Forecast: 65 / 53 °F
Wind: 5 mph from Northwest

Location: Montreal - Pierre Elliot Trudeau International Aiport

Current Time: May 24, 2019 at 7:51:31 am

Latest Report: May 24, 2019 at 7:00 am


Visibility: 15 mi

Pressure: 29.83 "Hg

Humidity: 88%

Dew Point: 52 °F

Location of MontréalLocation

Past Weather in Montréal — Graph

°F

Montréal Temperature Yesterday

Maximum temperature yesterday: 70 °F (at 3:00 pm)
Minimum temperature yesterday: 54 °F (at 1:00 am)
Average temperature yesterday: 60 °F

High & Low Weather Summary for the Past Weeks

 TemperatureHumidityPressure
High73 °F (May 20, 4:00 pm)100% (May 10, 12:00 pm)30.42 "Hg (May 10, 12:00 pm)
Low39 °F (May 9, 6:00 am)27% (May 9, 5:00 pm)29.56 "Hg (May 20, 4:00 pm)
Average54 °F68%29.90 "Hg
* Reported May 9 6:00 am — May 24 6:00 am, Montréal. Weather by CustomWeather, © 2019

Note: Actual official high and low records may vary slightly from our data, if they occured in-between our weather recording intervals... More about our weather records

Advertising

Montréal Weather History for the Previous 24 Hours

Scroll right to see more
 ConditionsComfort  
Time TempWeatherWind HumidityBarometerVisibility
6:00 am
Fri, May 24
54 °FLow clouds.8 mph94%29.79 "Hg15 mi
5:38 am54 °FPartly sunny.8 mph94%29.77 "Hg15 mi
5:00 am54 °FDrizzle. Low clouds.8 mph94%29.74 "Hg15 mi
4:00 am54 °FLight rain. Fog.10 mph94%29.70 "Hg4 mi
3:00 am54 °FLight rain. Mostly cloudy.12 mph94%29.67 "Hg8 mi
2:00 am54 °FDrizzle. Mostly cloudy.10 mph94%29.64 "Hg15 mi
1:04 am55 °FLight rain. Mostly cloudy.9 mph94%29.65 "Hg15 mi
12:00 am55 °FMostly cloudy.8 mph94%29.63 "Hg15 mi
11:32 pm
Thu, May 23
55 °FLight rain. Mostly cloudy.6 mph94%29.63 "Hg15 mi
11:00 pm55 °FLight rain. Low clouds.5 mph94%29.63 "Hg15 mi
10:00 pm55 °FLight rain. Low clouds.13 mph94%29.64 "Hg15 mi
9:37 pm57 °FLight rain. Mostly cloudy.10 mph94%29.63 "Hg15 mi
9:00 pm57 °FLight rain. Overcast.10 mph94%29.62 "Hg12 mi
8:45 pm57 °FLight rain. Overcast.14 mph88%29.63 "Hg8 mi
8:00 pm61 °FLight rain. Fog.8 mph94%29.61 "Hg6 mi
7:44 pm61 °FLight rain. Fog.9 mph94%29.63 "Hg3 mi
7:30 pm61 °FLight rain. Cloudy.9 mph94%29.64 "Hg8 mi
7:14 pm61 °FLight rain. Fog.10 mph94%29.66 "Hg4 mi
6:42 pm61 °FLight rain. Fog.6 mph94%29.70 "Hg4 mi
6:00 pm63 °FLight rain. Mostly cloudy.9 mph88%29.71 "Hg8 mi
5:00 pm63 °FLight rain. Mostly cloudy.8 mph77%29.77 "Hg10 mi
4:00 pm68 °FSprinkles. Mostly cloudy.12 mph53%29.79 "Hg15 mi
3:00 pm70 °FMostly cloudy.10 mph46%29.85 "Hg15 mi
2:00 pm68 °FMostly cloudy.10 mph46%29.89 "Hg30 mi
1:00 pm66 °FMostly cloudy.8 mph49%29.92 "Hg30 mi
12:22 pm66 °FMostly cloudy.8 mph46%29.93 "Hg30 mi
12:00 pm66 °FSprinkles. Mostly cloudy.8 mph49%29.94 "Hg30 mi
11:00 am66 °FMostly cloudy.5 mph49%29.97 "Hg30 mi
10:00 am64 °FMore clouds than sun.3 mph49%30.01 "Hg30 mi
9:00 am61 °FOvercast.7 mph52%30.03 "Hg30 mi
8:00 am59 °FPartly sunny.9 mph55%30.04 "Hg30 mi
7:00 am57 °FBroken clouds.9 mph63%30.06 "Hg30 mi
Weather by CustomWeather, © 2019

See weather overview